Weather History for KPIA - September, 2012

Change the Weather History Date:

Wednesday, September 26, 2012

  Actual Average Record
Temperature  
Mean Temperature 66 °F 62 °F  
Max Temperature 75 °F 73 °F 93 °F (1897)
Min Temperature 56 °F 51 °F 29 °F (1928)
Degree Days  
Heating Degree Days 0 5  
Month to date heating degree days 86 60  
Since 1 July heating degree days 86 66  
Cooling Degree Days 1 2  
Month to date cooling degree days 90 110  
Year to date cooling degree days 1368 1017  
Growing Degree Days 17 (Base 50)    
Moisture  
Dew Point 62 °F    
Average Humidity 84    
Maximum Humidity 100    
Minimum Humidity 67    
Precipitation  
Precipitation 0.00 in 0.10 in 2.89 in (1933)
Month to date precipitation 3.32 2.77  
Year to date precipitation 20.20 27.72  
Snow  
Snow 0.00 in 0.00 in 0.00 in ()
Month to date snowfall 0.0 0.0  
Since 1 July snowfall 0.0 0.0  
Since 1 September snowfall 0.0 0.0  
Snow Depth 0.00 in    
Sea Level Pressure  
Sea Level Pressure 29.96 in    
Wind  
Wind Speed 5 mph (SE)    
Max Wind Speed 17 mph    
Max Gust Speed 22 mph    
Visibility 3 miles    
Events Fog    
T = Trace of Precipitation, MM = Missing Value Source: NWS Daily Summary

Daily Weather History Graph

Daily Weather History Graph

Search for Another Location

Airport or City:

Trip Planner

Search our weather history database for the weather conditions in past years. The results will help you decide how hot, cold, wet, or windy it might be!

Date:

Astronomy

Sep. 26, 2012 Rise Set
Actual Time 6:50 AM CDT 6:48 PM CDT
Civil Twilight 6:23 AM CDT 7:15 PM CDT
Nautical Twilight 5:51 AM CDT 7:47 PM CDT
Astronomical Twilight 5:19 AM CDT 8:19 PM CDT
Moon 4:48 PM CDT (9/26) 3:15 AM CDT (9/26)
Length of Visible Light 12h 52m
Length of Day
11h 57m
Waxing Gibbous, 88% of the Moon is Illuminated
Sep 26
Waxing Gibbous
Sep 29
Full
Oct 8
Last Quarter
Oct 15
New
Oct 21
First Quarter

Hourly Weather History & Observations

Time (CDT) Temp. Dew Point Humidity Pressure Visibility Wind Dir Wind Speed Gust Speed Precip Events Conditions
12:54 AM 62.1 °F 60.1 °F 93% 29.88 in 5.0 mi Calm Calm - N/A   Clear
1:54 AM 61.0 °F 59.0 °F 93% 29.88 in 3.0 mi Calm Calm - N/A   Clear
2:06 AM 60.8 °F 60.8 °F 100% 29.89 in 2.0 mi Calm Calm - N/A   Clear
2:54 AM 63.0 °F 61.0 °F 93% 29.88 in 2.0 mi South 6.9 mph - N/A   Scattered Clouds
3:03 AM 62.6 °F 62.6 °F 100% 29.89 in 2.0 mi SSW 5.8 mph - N/A   Mostly Cloudy
3:10 AM 62.6 °F 62.6 °F 100% 29.89 in 1.8 mi SSW 6.9 mph - N/A   Mostly Cloudy
3:23 AM 62.6 °F 62.6 °F 100% 29.89 in 2.0 mi SW 4.6 mph - N/A   Overcast
3:54 AM 64.0 °F 63.0 °F 96% 29.89 in 2.0 mi SW 6.9 mph - N/A   Overcast
4:29 AM 64.4 °F 62.6 °F 94% 29.90 in 1.2 mi WSW 3.5 mph - N/A   Overcast
4:41 AM 64.4 °F 62.6 °F 94% 29.90 in 0.5 mi WNW 4.6 mph - N/A Fog Fog
4:52 AM 64.4 °F 62.6 °F 94% 29.90 in 0.5 mi WNW 4.6 mph - N/A Fog Fog
4:54 AM 64.0 °F 63.0 °F 96% 29.89 in 0.5 mi WNW 4.6 mph - N/A Fog Fog
5:02 AM 62.6 °F 62.6 °F 100% 29.90 in 0.2 mi West 4.6 mph - N/A Fog Fog
5:14 AM 62.6 °F 62.6 °F 100% 29.89 in 0.2 mi Calm Calm - N/A Fog Fog
5:27 AM 62.6 °F 62.6 °F 100% 29.90 in 0.5 mi Calm Calm - N/A Fog Fog
5:45 AM 62.6 °F 62.6 °F 100% 29.90 in 0.2 mi Calm Calm - N/A Fog Fog
5:54 AM 63.0 °F 63.0 °F 100% 29.90 in 0.2 mi North 3.5 mph - N/A Fog Fog
6:07 AM 62.6 °F 62.6 °F 100% 29.91 in 0.2 mi NNW 3.5 mph - N/A Fog Fog
6:13 AM 62.6 °F 62.6 °F 100% 29.92 in 0.2 mi Calm Calm - N/A Fog Fog
6:23 AM 62.6 °F 62.6 °F 100% 29.92 in 0.5 mi Variable 4.6 mph - N/A Fog Fog
6:27 AM 62.6 °F 62.6 °F 100% 29.92 in 0.2 mi Calm Calm - N/A Fog Fog
6:38 AM 62.6 °F 62.6 °F 100% 29.93 in 0.2 mi Variable 5.8 mph - N/A Fog Fog
6:54 AM 62.1 °F 62.1 °F 100% 29.93 in 0.2 mi Calm Calm - N/A Fog Fog
7:01 AM 62.6 °F 62.6 °F 100% 29.94 in 0.2 mi North 3.5 mph - N/A Fog Fog
7:54 AM 63.0 °F 62.1 °F 97% 29.96 in 0.2 mi South 4.6 mph - N/A Fog Fog
8:39 AM 64.4 °F 62.6 °F 94% 29.97 in 0.2 mi Calm Calm - N/A Fog Fog
8:54 AM 64.0 °F 64.0 °F 100% 29.97 in 0.5 mi Calm Calm - N/A Fog Fog
9:10 AM 64.4 °F 64.4 °F 100% 29.98 in 0.1 mi South 3.5 mph - N/A Fog Fog
9:38 AM 64.4 °F 64.4 °F 100% 29.98 in 0.8 mi NE 3.5 mph - N/A   Overcast
9:54 AM 64.9 °F 64.0 °F 97% 29.99 in 1.0 mi Calm Calm - N/A   Overcast
10:04 AM 64.4 °F 64.4 °F 100% 30.00 in 1.5 mi Calm Calm - N/A   Overcast
10:20 AM 64.4 °F 64.4 °F 100% 30.00 in 2.0 mi Calm Calm - N/A   Overcast
10:40 AM 66.2 °F 64.4 °F 94% 30.01 in 2.5 mi South 6.9 mph - N/A   Overcast
10:54 AM 66.9 °F 64.0 °F 90% 30.01 in 3.0 mi SSE 4.6 mph - N/A   Overcast
11:02 AM 66.2 °F 64.4 °F 94% 30.01 in 3.0 mi SSE 5.8 mph - N/A   Overcast
11:10 AM 66.2 °F 64.4 °F 94% 30.01 in 3.0 mi SSE 3.5 mph - N/A   Overcast
11:54 AM 68.0 °F 64.0 °F 87% 30.01 in 4.0 mi SSE 3.5 mph - N/A   Overcast
12:01 PM 68.0 °F 64.4 °F 88% 30.01 in 4.0 mi SSE 3.5 mph - N/A   Overcast
12:30 PM 69.8 °F 64.4 °F 83% 30.01 in 4.0 mi Calm Calm - N/A   Haze
12:54 PM 71.1 °F 64.0 °F 78% 30.01 in 5.0 mi NE 3.5 mph - N/A   Haze
1:22 PM 71.6 °F 64.4 °F 78% 30.00 in 5.0 mi East 6.9 mph - N/A   Haze
1:54 PM 73.9 °F 64.0 °F 71% 30.00 in 6.0 mi ENE 6.9 mph - N/A   Haze
2:54 PM 73.9 °F 63.0 °F 68% 29.99 in 7.0 mi ESE 4.6 mph - N/A   Clear
3:54 PM 73.9 °F 62.1 °F 66% 29.99 in 9.0 mi East 3.5 mph - N/A   Partly Cloudy
4:54 PM 72.0 °F 63.0 °F 73% 30.01 in 8.0 mi ENE 5.8 mph - N/A   Partly Cloudy
5:54 PM 71.1 °F 62.1 °F 73% 30.01 in 8.0 mi NE 6.9 mph - N/A   Clear
6:54 PM 68.0 °F 61.0 °F 78% 30.04 in 9.0 mi Calm Calm - N/A   Clear
7:54 PM 64.0 °F 60.1 °F 87% 30.06 in 10.0 mi Calm Calm - N/A   Clear
8:54 PM 63.0 °F 57.0 °F 81% 30.07 in 10.0 mi Calm Calm - N/A   Scattered Clouds
9:54 PM 62.1 °F 51.1 °F 67% 30.09 in 10.0 mi ENE 13.8 mph - N/A   Clear
10:54 PM 59.0 °F 50.0 °F 72% 30.11 in 10.0 mi ENE 11.5 mph - N/A   Clear
11:54 PM 57.9 °F 50.0 °F 75% 30.12 in 10.0 mi ENE 12.7 mph 20.7 mph N/A   Clear